Weather History for Opa Locka, FL

Change the Weather History Date:

Friday, March 22, 2013

  Actual Average Record
Temperature  
Mean Temperature 70 °F -  
Max Temperature 78 °F 80 °F 92 °F (1977)
Min Temperature 61 °F 62 °F 44 °F (1951)
Cooling Degree Days 4    
Growing Degree Days 20 (Base 50)    
Moisture  
Dew Point 62 °F    
Average Humidity 76    
Maximum Humidity 97    
Minimum Humidity 56    
Precipitation  
Precipitation 0.01 in - - ()
Sea Level Pressure  
Sea Level Pressure 29.97 in    
Wind  
Wind Speed 5 mph (SE)    
Max Wind Speed 15 mph    
Max Gust Speed 22 mph    
Visibility 10 miles    
Events Rain    
Averages and records for this station are not official NWS values.
T = Trace of Precipitation, MM = Missing Value Source: NWS Daily Summary

Daily Weather History Graph

Daily Weather History Graph

Search for Another Location

Airport:

Trip Planner

Search our weather history database for the weather conditions in past years. The results will help you decide how hot, cold, wet, or windy it might be!

Date:

Astronomy

Mar. 22, 2013 Rise Set
Actual Time 7:22 AM EDT 7:33 PM EDT
Civil Twilight 6:59 AM EDT 7:56 PM EDT
Nautical Twilight 6:32 AM EDT 8:23 PM EDT
Astronomical Twilight 6:05 AM EDT 8:50 PM EDT
Moon 3:22 PM EDT (3/22) 3:57 AM EDT (3/22)
Length of Visible Light 12h 56m
Length of Day
12h 10m
Waxing Gibbous, 77% of the Moon is Illuminated
Mar 22
Waxing Gibbous
Mar 27
Full
Apr 3
Last Quarter
Apr 10
New
Apr 18
First Quarter

Hourly Weather History & Observations

Time (EDT) Temp. Dew Point Humidity Pressure Visibility Wind Dir Wind Speed Gust Speed Precip Events Conditions
12:53 AM 64.4 °F 53.6 °F 68% 29.95 in 10.0 mi Calm Calm - N/A   Clear
1:53 AM 62.1 °F 53.1 °F 72% 29.95 in 10.0 mi Calm Calm - N/A   Clear
2:53 AM 61.0 °F 53.1 °F 75% 29.94 in 10.0 mi Calm Calm - N/A   Clear
3:53 AM 62.1 °F 54.0 °F 75% 29.92 in 10.0 mi Calm Calm - N/A   Clear
4:53 AM 61.0 °F 54.0 °F 78% 29.92 in 10.0 mi Calm Calm - N/A   Clear
5:53 AM 62.1 °F 55.9 °F 80% 29.93 in 10.0 mi East 4.6 mph - N/A   Mostly Cloudy
6:53 AM 64.0 °F 57.0 °F 78% 29.94 in 10.0 mi ESE 5.8 mph - N/A   Partly Cloudy
7:53 AM 64.9 °F 57.9 °F 78% 29.96 in 10.0 mi East 4.6 mph - N/A   Scattered Clouds
8:53 AM 70.0 °F 60.1 °F 71% 29.99 in 10.0 mi ESE 4.6 mph - N/A   Mostly Cloudy
9:53 AM 73.0 °F 60.1 °F 64% 30.01 in 10.0 mi ESE 11.5 mph - N/A   Mostly Cloudy
10:53 AM 73.9 °F 60.1 °F 62% 30.02 in 10.0 mi ESE 15.0 mph - N/A   Overcast
11:53 AM 78.1 °F 61.0 °F 56% 30.02 in 10.0 mi SE 13.8 mph - N/A   Scattered Clouds
12:53 PM 75.9 °F 61.0 °F 60% 30.02 in 10.0 mi SE 13.8 mph - N/A   Overcast
1:03 PM 75.2 °F 60.8 °F 61% 30.01 in 10.0 mi SE 12.7 mph - N/A   Overcast
1:53 PM 75.0 °F 62.1 °F 64% 29.99 in 10.0 mi ESE 13.8 mph - N/A   Overcast
2:53 PM 75.0 °F 63.0 °F 66% 29.97 in 10.0 mi SE 15.0 mph - N/A   Overcast
3:53 PM 75.0 °F 64.0 °F 69% 29.94 in 10.0 mi SE 15.0 mph 21.9 mph 0.00 in   Overcast
4:53 PM 73.0 °F 66.9 °F 81% 29.94 in 10.0 mi SE 11.5 mph - 0.00 in Rain Light Rain
5:13 PM 73.4 °F 68.0 °F 83% 29.94 in 10.0 mi SE 10.4 mph - 0.00 in Rain Light Rain
5:53 PM 72.0 °F 68.0 °F 87% 29.95 in 10.0 mi SE 8.1 mph - 0.01 in   Overcast
6:53 PM 73.0 °F 68.0 °F 84% 29.95 in 10.0 mi SSE 9.2 mph - 0.00 in   Mostly Cloudy
7:53 PM 73.0 °F 68.0 °F 84% 29.96 in 10.0 mi SSE 9.2 mph - 0.00 in Rain Light Rain
8:53 PM 72.0 °F 69.1 °F 91% 29.97 in 10.0 mi SSE 6.9 mph - 0.00 in   Clear
9:53 PM 72.0 °F 69.1 °F 91% 29.99 in 10.0 mi South 5.8 mph - N/A   Mostly Cloudy
10:53 PM 70.0 °F 69.1 °F 97% 29.99 in 10.0 mi SSE 6.9 mph - N/A   Clear
11:53 PM 71.1 °F 69.1 °F 93% 30.00 in 10.0 mi SSE 5.8 mph - N/A   Clear